Zurück zum Katalog

O3B FM10

AktivKommunikationMEO
NORAD 40348·PAYLOAD·🇱🇺 Luxembourg

Gestartet Dec 18, 2014 von Guiana Space Centre

Loading…

Nächste Überflüge (nächste 24 Stunden)

TLE

AktuellSource: CelesTrak SupGP

Epoche: Sep 14, 2026, 15:00 UTC

1 40348C 14083A   26257.62500000  .00000000  00000+0  00000+0 0  2575
2 40348   0.0495 344.9050 0002689 187.4953  33.9032  5.00115887    12

Verfolge O3B FM10 in Echtzeit mit AllMySat

Download on the App Store